Volver al catálogo

STARLINK-30912

ActivoComunicacionesVLEO
NORAD 58422·PAYLOAD·🇺🇸 United States

Lanzado Nov 22, 2023 desde Cape Canaveral Space Force Station

Loading…

Próximos Pases (próximas 24 horas)

TLE

ActualizadoSource: CelesTrak SupGP

Época: Sep 15, 2026, 03:06 UTC

1 58422C 23180W   26258.12965278 -.00003295  00000+0 -11936-3 0  2589
2 58422  43.0001 280.4438 0001395 258.4964 333.7863 15.27578531    14

Sigue STARLINK-30912 en tiempo real con AllMySat

Download on the App Store